www.pogodaiklimat.ru

Погода и климат >> Архив погоды >> Мали >> Kenieba


ПОГОДА в Kenieba

  • Прогноз погоды в Kenieba
  • Монитор погоды в Kenieba
  • Климат города

АРХИВ ПОГОДЫ в Kenieba

Время (UTC), дата Ветер
(напр.,м/с)
 
Видим.   Явления Облачность Т
(С)
Тd
(С)
f
(%)
Тe
(С)
Тes
(С)
Комфортность P
(гПа)
Po
(гПа)
Тmin
(С)
Tmax
(С)
R
(мм)
R24
(мм)
S
(см)
12 17.04 ЮЗ 2 10 км 4/0
[Ci sp]
+39.0 +9.5 17 +37 +57 опасность
солнечного
удара
1010.4 995.8
15 17.04 ЮВ 2 10 км 3/0
[Ci sp]
+42.4 +7.2 12 +40 +55 опасность
солнечного
удара
1006.7 992.1
18 17.04 В 2 10 км ясно +41.5 +8.5 14 +39 +41 очень
жарко
1006.4 991.8 +43.1
21 17.04 штиль 0 10 км 4/0
[Ci sp]
+34.9 +12.4 26 +35 +35 очень
жарко
1008.6 994.0
00 18.04 штиль 0 10 км 5/0
[Ci sp]
+30.5 +8.7 26 +30 +30 жарко 1009.9 995.4
03 18.04 штиль 0 10 км 5/0
[]
+27.0 +11.5 38 +28 +28 жарко 1008.8 994.3
06 18.04 штиль 0 10 км 6/0
[Ci sp]
+27.6 +8.4 30 +27 +27 жарко 1009.3 994.8 +26.5
09 18.04 штиль 0 10 км 5/0
[Ci sp]
+31.0 +10.6 28 +31 +40 жарко 1011.6 996.9
12 18.04 СЗ 2 10 км 5/0
[Ci sp]
+38.4 +8.3 16 +36 +55 опасность
солнечного
удара
1010.5 995.9
15 18.04 СВ 2 10 км 4/0
[Ci sp]
+42.1 +6.1 11 +39 +54 опасность
солнечного
удара
1007.8 993.3
18 18.04 С 2 10 км 5/0
[Ci sp]
+41.4 +6.9 12 +39 +40 очень
жарко
1006.9 992.4 +43.1
21 18.04 штиль 0 10 км 5/0
[Ci sp]
+33.5 +13.1 29 +34 +34 очень
жарко
1008.7 994.0
00 19.04 СЗ 2 10 км 4/0
[Ci sp]
+29.0 +10.9 33 +30 +30 жарко 1009.8 995.2
03 19.04 З 1 10 км 5/0
[Ci sp]
+27.4 +9.7 33 +28 +28 жарко 1009.4 994.9
06 19.04 штиль 0 10 км 6/0
[Ci sp]
+28.5 +12.3 37 +30 +30 жарко 1011.4 996.8 +27.9
09 19.04 С 2 10 км 4/0
[Ci sp]
+30.9 +18.2 47 +36 +42 очень
душно
1012.9 998.2
12 19.04 С 2 10 км 4/0
[Ci sp]
+36.5 +13.3 25 +37 +56 опасность
солнечного
удара
1011.8 997.1
15 19.04 С 2 10 км 3/0
[Ci sp]
+39.9 +11.5 18 +39 +53 опасность
солнечного
удара
1008.9 994.3
18 19.04 СЗ 2 10 км ясно +39.3 +12.0 20 +39 +40 очень
жарко
1007.7 993.1 +40.5
21 19.04 штиль 0 10 км 4/0
[Ci sp]
+33.4 +17.4 39 +37 +37 очень
душно
1009.2 994.5
00 20.04 штиль 0 10 км 4/0
[Ci sp]
+28.8 +14.4 41 +31 +31 жарко 1010.2 995.6
03 20.04 штиль 0 10 км 5/0
[Ci sp]
+25.6 +13.1 46 +28 +28 жарко 1009.3 994.7
06 20.04 штиль 0 10 км 6/0
[Ci sp]
+26.0 +11.2 40 +27 +27 жарко 1009.8 995.2 +24.2
09 20.04 СЗ 2 10 км 6/0
[Ci sp]
+30.5 +10.3 29 +30 +37 жарко 1010.7 996.0
12 20.04 С 2 10 км 6/0
[Ci sp]
+35.2 +7.4 18 +33 +52 опасность
солнечного
удара
1010.2 995.5
15 20.04 З 2 10 км 6/0
[Ci sp]
+39.5 +9.0 16 +38 +51 опасность
солнечного
удара
1007.8 993.3
18 20.04 З 2 10 км 8/0
[Ci sp]
+38.8 +10.5 18 +37 +38 очень
жарко
1006.6 992.0 +40.0
21 20.04 штиль 0 10 км 8/0
[Ci sp]
+32.7 +14.1 32 +34 +34 очень
жарко
1007.7 993.0
00 21.04 штиль 0 10 км 6/0
[Ci sp]
+28.5 +13.8 41 +30 +30 жарко 1009.0 994.3
03 21.04 штиль 0 10 км 6/0
[Ci sp]
+28.4 +14.3 42 +31 +31 душно 1007.9 996.3
06 21.04 штиль 0 10 км 8/0
[Ci sp]
+23.5 +12.3 49 +25 +25 комфорт 1008.7 994.0 +23.0
09 21.04 штиль 0 10 км 8/0
[Ci sp]
+30.0 +10.2 29 +30 +38 жарко 1010.0 995.3
12 21.04 С 2 10 км 6/0
[Ci sp]
+36.5 +9.6 20 +35 +54 опасность
солнечного
удара
1008.7 994.1
15 21.04 З 2 10 км 6/0
[Ci sp]
+40.5 +9.8 16 +39 +53 опасность
солнечного
удара
1005.6 991.1
18 21.04 З 2 10 км 6/0
[Ci sp]
+40.5 +13.1 20 +40 +42 очень
жарко
1004.8 990.2 +42.0
21 21.04 штиль 0 10 км 6/0
[Ci sp]
+32.2 +15.2 36 +34 +34 душно 1006.7 992.0
00 22.04 штиль 0 10 км 4/0
[Ci sp]
+28.4 +14.3 42 +31 +31 душно 1007.7 993.1
03 22.04 штиль 0 10 км 5/0
[Ci sp]
+27.0 +12.6 41 +29 +29 жарко 1007.0 992.5
06 22.04 штиль 0 10 км 6/0
[Ci sp]
+27.2 +10.8 36 +28 +28 жарко 1008.9 994.3 +26.3
09 22.04 штиль 0 10 км 5/0
[Ci sp]
+30.0 +17.6 47 +34 +43 очень
душно
1011.3 996.5
12 22.04 СЗ 2 10 км 4/0
[Ci sp]
+35.9 +11.0 22 +35 +55 опасность
солнечного
удара
1009.7 995.0
15 22.04 С 2 10 км 4/0
[Ci sp]
+40.1 +10.5 17 +39 +53 опасность
солнечного
удара
1005.9 991.4
18 22.04 С 2 10 км 4/0
[Ci sp]
+40.5 +7.9 14 +38 +39 очень
жарко
1005.5 991.0 +41.5
21 22.04 штиль 0 10 км 5/0
[Ci sp]
+32.8 +14.1 32 +34 +34 очень
жарко
1007.7 993.0
00 23.04 штиль 0 10 км 5/0
[Ci sp]
+28.8 +13.4 39 +30 +30 жарко 1008.5 993.8
03 23.04 штиль 0 10 км 5/0
[Ci sp]
+30.2 +11.0 31 +31 +31 жарко 1007.5 993.0
06 23.04 штиль 0 10 км 6/0
[Ac As Ci sp]
+25.6 +10.4 38 +26 +26 жарко 1009.5 994.9 +25.5
09 23.04 З 1 10 км 8/0
[Ac As Ci sp]
+30.8 +11.2 30 +31 +36 жарко 1011.4 996.7
12 23.04 С 2 10 км 8/0
[Ac As Ci sp]
+37.7 +6.1 14 +35 +49 очень
жарко
1010.0 995.4
15 23.04 СЗ 2 10 км 8/0
[Ac As Ci sp]
+41.5 +9.1 14 +39 +49 очень
жарко
1006.2 991.8
18 23.04 СЗ 1 10 км 8/0
[Ac As Ci sp]
+41.2 +9.4 15 +39 +40 очень
жарко
1005.6 991.0 +43.0
21 23.04 штиль 0 10 км 8/0 900 м
[Ac As Ci sp]
+34.0 +14.5 31 +35 +35 очень
жарко
1006.9 992.3
00 24.04 ЮЗ 2 10 км 8/0
[Ac As]
+34.5 +11.0 24 +34 +34 очень
жарко
1008.2 993.7
03 24.04 З 2 10 км 9/0
[Ac As]
+34.0 +10.1 23 +33 +33 жарко 1007.6 993.2
06 24.04 штиль 0 10 км 10/0
[Ac As Ci sp]
+28.0 +11.1 35 +29 +29 жарко 1008.9 994.4 +28.0
09 24.04 СЗ 2 10 км 6/0
[Ac As Ci sp]
+32.7 +11.5 27 +33 +38 жарко 1011.3 996.6

 

Местоположение метеостанции Kenieba (Мали): широта 12.85 долгота -11.23 высота над уровнем моря 132 м.

В архиве по умолчанию представлена погода в Kenieba за последнюю неделю. Архивные данные за месяц целиком и за предыдущие месяцы, начиная с января 2011 года, Вы можете получить, выбрав интересующий диапазон дат из раскрывающегося списка и нажав кнопку "Ввод!".


*Определитесь, кто Вы:
робот инопланетянин человек

Внимание! Время в таблицах - всемирное. Для получения местного времени необходимо прибавить поправку, которая в Kenieba равна 0 ч.

Смотрите также архив погоды в соседних городах и на ближайших метеорологических станциях:

Погода в Kedougou (Сенегал) (111 км)
Погода в Kayes (Мали) (177 км)
Погода в Kita (Мали) (192 км)
Погода в Koundara (Гвинея) (249 км)
Погода в Fatoto (Гамбия) (261 км)
Погода в Yelimane (Мали) (263 км)
Погода в Tambacounda (Сенегал) (284 км)
Погода в Basse (Гамбия) (327 км)
Погода в Nioro Du Sahel (Мали) (333 км)
Погода в Bamako (Мали) (358 км)

Пояснения к столбцам:

Ветер - указаны скорость ветра в м/с - средняя за 10 мин, порывы в срок и между сроками (в фигурных скобках) и направление, откуда дует ветер: С - северный, СВ - северо-восточный, В - восточный, ЮВ - юго-восточный, Ю - южный, ЮЗ - юго-западный, З - западный, СЗ - северо-западный.
Видимость - горизонтальная дальность видимости в метрах или километрах. При видимости от 1 до 10 км при отсутствии осадков обычно наблюдается дымка, при ухудшении видимости до 1 км и менее - туман. В сухую погоду видимость может ухудшаться дымом, пылью или мглою.
Явления - указаны атмосферные явления, наблюдавшиеся в срок или в последний час перед сроком; фигурными скобками обозначены явления, наблюдавшиеся между сроками (за 1-3 часа до срока); квадратными скобками обозначены град или гололедные отложения с указанием их диаметра в мм.
Облачность - указаны через наклонную черту общая и нижняя облачность в баллах и высота нижней границы облаков в метрах; квадратными скобками обозначены формы облаков: Ci - перистые, Cs - перисто-слоистые, Cc - перисто-кучевые, Ac - высококучевые, As - высокослоистые, Sc - слоисто-кучевые, Ns - слоисто-дождевые, Cu - кучевые, Cb - кучево-дождевые. Подробнее классификацию облаков см. в Атласе облаков (PDF).
T - Температура воздуха - температура, измеренная на высоте 2 м над землей.
Td - Температура точки росы - температура, при понижении до которой содержащийся в воздухе водяной пар достигнет насыщения.
f - Относительная влажность воздуха - влажноcть воздуха, измеренная на высоте 2 м над землей.
Te - Эффективная температура - температура, которую ощущает одетый по сезону человек в тени. Характеристика душности погоды. При расчете учитывается влияние влажности воздуха и скорости ветра на теплоощущения человека.
Tes - Эффективная температура на солнце - температура, которую ощущает человек, с поправкой на солнечный нагрев. Характеристика знойности погоды. Зависит от высоты солнца над горизонтом, облачности и скорости ветра. Ночью, в пасмурную погоду, а также при ветре 12 м/с и более поправка равна нулю.
P - Атмосферное давление - приведенное к уровню моря атмосферное давление.
Po - Атмосферное давление - измеренное на уровне метеостанции атмосферное давление.
Tmin - Минимальная температура - минимум температуры воздуха на высоте 2 м над землей.
Tmax - Максимальная температура - максимум температуры воздуха на высоте 2 м над землей.
R - Количество осадков - Количество выпавших осадков за период времени, мм. При наведении курсора мыши на число - период времени, за который выпало указанное количество осадков.
R24 - Количество осадков - Количество выпавших осадков за 24 часа, мм.
S - Снежный покров - Высота снежного покрова, см. При наведении курсора мыши на число - состояние снежного покрова и степень покрытия местности в баллах.